| time (UTC) | temp F | wind direction | speed MPH | gust MPH | rain 1hr in | rain 24hr in | rain mn in | humidity % | barometer mb |
| 20260901161003 | 71 | 267 | 3.0 | 9.0 | 0.00 | 0.00 | 0.00 | 58 | 1018.3 |
| 20260901155003 | 71 | 269 | 5.0 | 12.0 | 0.00 | 0.00 | 0.00 | 58 | 1018.5 |
| 20260901154003 | 72 | 251 | 4.0 | 15.0 | 0.00 | 0.00 | 0.00 | 57 | 1018.6 |
| 20260901153003 | 72 | 258 | 5.0 | 12.0 | 0.00 | 0.00 | 0.00 | 57 | 1018.6 |
| 20260901151004 | 72 | 306 | 4.0 | 10.0 | 0.00 | 0.04 | 0.00 | 57 | 1018.5 |
| 20260901145003 | 73 | 270 | 4.0 | 13.0 | 0.00 | 0.04 | 0.00 | 56 | 1018.6 |
| 20260901144003 | 73 | 259 | 5.0 | 13.0 | 0.00 | 0.04 | 0.00 | 55 | 1018.6 |
| 20260901143003 | 74 | 265 | 4.0 | 12.0 | 0.00 | 0.04 | 0.00 | 53 | 1018.7 |
| 20260901141003 | 73 | 253 | 4.0 | 15.0 | 0.00 | 0.08 | 0.00 | 55 | 1018.8 |
| 20260901140004 | 71 | 282 | 3.0 | 8.0 | 0.00 | 0.08 | 0.00 | 59 | 1018.7 |
| 20260901135003 | 71 | 296 | 3.0 | 8.0 | 0.00 | 0.08 | 0.00 | 58 | 1018.8 |
| 20260901134004 | 70 | 272 | 4.0 | 9.0 | 0.00 | 0.08 | 0.00 | 59 | 1018.9 |
| 20260901133003 | 70 | 265 | 3.0 | 11.0 | 0.00 | 0.08 | 0.00 | 59 | 1019.0 |
| 20260901132003 | 70 | 265 | 4.0 | 10.0 | 0.00 | 0.08 | 0.00 | 58 | 1018.9 |
| 20260901131003 | 71 | 254 | 4.0 | 11.0 | 0.00 | 0.08 | 0.00 | 58 | 1019.0 |
| 20260901130004 | 72 | 250 | 5.0 | 14.0 | 0.00 | 0.08 | 0.00 | 58 | 1019.1 |
| 20260901125003 | 71 | 255 | 4.0 | 15.0 | 0.00 | 0.08 | 0.00 | 58 | 1019.0 |
| 20260901123003 | 72 | 249 | 4.0 | 13.0 | 0.00 | 0.08 | 0.00 | 57 | 1019.3 |
| 20260901122003 | 72 | 276 | 3.0 | 8.0 | 0.00 | 0.08 | 0.00 | 59 | 1019.4 |
| 20260901121005 | 70 | 295 | 4.0 | 8.0 | 0.00 | 0.08 | 0.00 | 59 | 1019.4 |
| 20260901120004 | 71 | 264 | 3.0 | 10.0 | 0.00 | 0.08 | 0.00 | 57 | 1019.5 |
| 20260901115003 | 70 | 227 | 4.0 | 11.0 | 0.00 | 0.08 | 0.00 | 59 | 1019.4 |
| 20260901114003 | 70 | 251 | 3.0 | 11.0 | 0.00 | 0.08 | 0.00 | 59 | 1019.3 |
| 20260901113004 | 69 | 287 | 3.0 | 7.0 | 0.00 | 0.08 | 0.00 | 61 | 1019.5 |
| 20260901112004 | 69 | 279 | 5.0 | 12.0 | 0.00 | 0.08 | 0.00 | 61 | 1019.6 |
| 20260901111004 | 69 | 259 | 3.0 | 12.0 | 0.00 | 0.08 | 0.00 | 60 | 1019.7 |
| 20260901110004 | 69 | 289 | 4.0 | 11.0 | 0.00 | 0.08 | 0.00 | 61 | 1019.6 |
| 20260901102003 | 68 | 282 | 4.0 | 12.0 | 0.00 | 0.08 | 0.00 | 64 | 1019.9 |
| 20260901101003 | 68 | 285 | 3.0 | 9.0 | 0.00 | 0.08 | 0.00 | 64 | 1019.9 |
| 20260901094004 | 67 | 255 | 3.0 | 9.0 | 0.00 | 0.08 | 0.00 | 67 | 1020.1 |
| 20260901093003 | 66 | 240 | 3.0 | 8.0 | 0.00 | 0.08 | 0.00 | 68 | 1020.1 |
| 20260901092003 | 66 | 250 | 2.0 | 8.0 | 0.00 | 0.08 | 0.00 | 69 | 1020.1 |
| 20260901091003 | 65 | 255 | 2.0 | 6.0 | 0.00 | 0.08 | 0.00 | 71 | 1020.2 |
| 20260901090005 | 65 | 254 | 3.0 | 10.0 | 0.00 | 0.09 | 0.00 | 73 | 1020.2 |
| 20260901085004 | 64 | 259 | 3.0 | 7.0 | 0.00 | 0.09 | 0.00 | 75 | 1020.1 |
| 20260901084003 | 63 | 269 | 3.0 | 9.0 | 0.00 | 0.09 | 0.00 | 77 | 1020.1 |
| 20260901082005 | 62 | 236 | 2.0 | 6.0 | 0.00 | 0.09 | 0.00 | 80 | 1019.9 |
| 20260901081003 | 61 | 258 | 1.0 | 5.0 | 0.00 | 0.09 | 0.00 | 82 | 1020.0 |
| 20260901080003 | 60 | 269 | 1.0 | 4.0 | 0.00 | 0.09 | 0.00 | 84 | 1019.8 |
| 20260901074003 | 58 | 270 | 1.0 | 3.0 | 0.00 | 0.09 | 0.00 | 86 | 1019.8 |
| 20260901073003 | 58 | 0 | 0.0 | 2.0 | 0.00 | 0.09 | 0.00 | 86 | 1019.7 |
| 20260901072003 | 57 | 344 | 0.0 | 4.0 | 0.00 | 0.09 | 0.00 | 88 | 1019.7 |
| 20260901071003 | 57 | 0 | 0.0 | 2.0 | 0.00 | 0.09 | 0.00 | 90 | 1019.7 |
| 20260901065003 | 55 | 0 | 0.0 | 1.0 | 0.00 | 0.09 | 0.00 | 94 | 1019.7 |
| 20260901064003 | 54 | 0 | 0.0 | 1.0 | 0.00 | 0.09 | 0.00 | 94 | 1019.6 |
| 20260901063003 | 53 | 0 | 0.0 | 3.0 | 0.00 | 0.09 | 0.00 | 95 | 1019.5 |
| 20260901062003 | 52 | 0 | 0.0 | 0.0 | 0.00 | 0.09 | 0.00 | 94 | 1019.4 |
| 20260901061003 | 52 | 0 | 0.0 | 0.0 | 0.00 | 0.09 | 0.00 | 94 | 1019.4 |
| 20260901060003 | 52 | 0 | 0.0 | 0.0 | 0.00 | 0.09 | 0.00 | 94 | 1019.3 |
| 20260901055004 | 52 | 0 | 0.0 | 0.0 | 0.00 | 0.09 | 0.00 | 94 | 1019.3 |
| 20260901054004 | 52 | 0 | 0.0 | 0.0 | 0.00 | 0.09 | 0.00 | 94 | 1019.2 |
| 20260901052004 | 52 | 0 | 0.0 | 2.0 | 0.00 | 0.09 | 0.00 | 94 | 1019.0 |
| 20260901051003 | 52 | 0 | 0.0 | 1.0 | 0.00 | 0.09 | 0.00 | 94 | 1018.9 |
| 20260901050003 | 52 | 0 | 0.0 | 0.0 | 0.00 | 0.09 | 0.00 | 94 | 1018.9 |
| 20260901045003 | 52 | 0 | 0.0 | 1.0 | 0.00 | 0.09 | 0.00 | 94 | 1018.9 |
| 20260901044003 | 52 | 0 | 0.0 | 2.0 | 0.00 | 0.09 | 0.00 | 94 | 1018.9 |
| 20260901043003 | 52 | 0 | 0.0 | 1.0 | 0.00 | 0.09 | 0.00 | 93 | 1018.8 |
| 20260901042003 | 52 | 0 | 0.0 | 0.0 | 0.00 | 0.09 | 0.00 | 93 | 1018.7 |
| 20260901041003 | 52 | 0 | 0.0 | 1.0 | 0.00 | 0.09 | 0.00 | 93 | 1018.6 |
| 20260901040004 | 52 | 0 | 0.0 | 0.0 | 0.00 | 0.09 | 0.00 | 93 | 1018.6 |
| 20260901035003 | 52 | 0 | 0.0 | 2.0 | 0.00 | 0.09 | 0.00 | 93 | 1018.6 |
| 20260901034004 | 52 | 0 | 0.0 | 1.0 | 0.00 | 0.09 | 0.00 | 93 | 1018.6 |
| 20260901033003 | 52 | 0 | 0.0 | 2.0 | 0.00 | 0.09 | 0.00 | 92 | 1018.6 |
| 20260901032003 | 53 | 0 | 0.0 | 0.0 | 0.00 | 0.09 | 0.00 | 92 | 1018.6 |
| 20260901031003 | 53 | 0 | 0.0 | 0.0 | 0.00 | 0.09 | 0.00 | 92 | 1018.5 |
| 20260901025004 | 53 | 0 | 0.0 | 0.0 | 0.00 | 0.09 | 0.00 | 91 | 1018.4 |
| 20260901024003 | 53 | 0 | 0.0 | 0.0 | 0.00 | 0.09 | 0.00 | 91 | 1018.4 |
| 20260901023004 | 54 | 0 | 0.0 | 0.0 | 0.00 | 0.09 | 0.00 | 91 | 1018.5 |
| 20260901021003 | 54 | 0 | 0.0 | 0.0 | 0.00 | 0.09 | 0.00 | 90 | 1018.5 |
| 20260901015003 | 55 | 0 | 0.0 | 0.0 | 0.00 | 0.09 | 0.00 | 89 | 1018.6 |
| 20260901014003 | 55 | 0 | 0.0 | 0.0 | 0.00 | 0.11 | 0.00 | 89 | 1018.5 |
| 20260901013003 | 55 | 0 | 0.0 | 0.0 | 0.00 | 0.11 | 0.00 | 88 | 1018.5 |
| 20260901011003 | 56 | 0 | 0.0 | 0.0 | 0.00 | 0.11 | 0.00 | 87 | 1018.3 |
| 20260901010003 | 56 | 0 | 0.0 | 2.0 | 0.00 | 0.11 | 0.00 | 87 | 1018.3 |
| 20260901005004 | 56 | 0 | 0.0 | 3.0 | 0.00 | 0.11 | 0.00 | 87 | 1018.4 |
| 20260901004003 | 56 | 0 | 0.0 | 1.0 | 0.00 | 0.12 | 0.00 | 86 | 1018.4 |
| 20260901003004 | 56 | 0 | 0.0 | 1.0 | 0.00 | 0.12 | 0.00 | 86 | 1018.3 |
| 20260901002003 | 57 | 0 | 0.0 | 3.0 | 0.00 | 0.12 | 0.00 | 85 | 1018.2 |
| 20260901001003 | 57 | 0 | 0.0 | 2.0 | 0.00 | 0.12 | 0.00 | 85 | 1018.2 |
| 20260901000003 | 57 | 0 | 0.0 | 3.0 | 0.00 | 0.12 | 0.00 | 85 | 1018.2 |
| 20260831235004 | 58 | 0 | 0.0 | 4.0 | 0.00 | 0.12 | 0.00 | 84 | 1018.2 |
| 20260831234003 | 58 | 0 | 0.0 | 2.0 | 0.00 | 0.12 | 0.00 | 84 | 1018.1 |
| 20260831233003 | 58 | 0 | 0.0 | 2.0 | 0.00 | 0.12 | 0.00 | 84 | 1017.9 |
| 20260831232003 | 58 | 0 | 0.0 | 3.0 | 0.00 | 0.12 | 0.00 | 83 | 1018.0 |
| 20260831230005 | 59 | 313 | 0.0 | 3.0 | 0.00 | 0.12 | 0.00 | 83 | 1017.9 |
| 20260831224004 | 59 | 312 | 0.0 | 3.0 | 0.00 | 0.12 | 0.12 | 83 | 1018.0 |
| 20260831223003 | 59 | 312 | 1.0 | 3.0 | 0.00 | 0.12 | 0.12 | 83 | 1017.8 |
| 20260831222003 | 59 | 313 | 1.0 | 4.0 | 0.00 | 0.12 | 0.12 | 83 | 1017.7 |
| 20260831221003 | 59 | 312 | 1.0 | 5.0 | 0.00 | 0.12 | 0.12 | 83 | 1017.7 |
| 20260831215003 | 60 | 313 | 1.0 | 2.0 | 0.00 | 0.12 | 0.12 | 82 | 1017.7 |
| 20260831214004 | 60 | 312 | 1.0 | 3.0 | 0.00 | 0.12 | 0.12 | 81 | 1017.5 |
| 20260831213003 | 60 | 312 | 1.0 | 4.0 | 0.00 | 0.12 | 0.12 | 81 | 1017.5 |
| 20260831212003 | 60 | 312 | 1.0 | 3.0 | 0.00 | 0.12 | 0.12 | 80 | 1017.3 |
| 20260831211004 | 61 | 314 | 2.0 | 5.0 | 0.00 | 0.12 | 0.12 | 80 | 1017.2 |
| 20260831210003 | 61 | 312 | 2.0 | 6.0 | 0.00 | 0.12 | 0.12 | 80 | 1017.1 |
| 20260831205003 | 61 | 312 | 2.0 | 8.0 | 0.00 | 0.12 | 0.12 | 80 | 1017.1 |
| 20260831204004 | 61 | 314 | 2.0 | 5.0 | 0.00 | 0.12 | 0.12 | 80 | 1016.9 |
| 20260831201004 | 62 | 310 | 1.0 | 3.0 | 0.00 | 0.12 | 0.12 | 81 | 1016.6 |
| 20260831200003 | 62 | 314 | 2.0 | 4.0 | 0.00 | 0.12 | 0.12 | 80 | 1016.4 |
| 20260831195003 | 62 | 327 | 1.0 | 6.0 | 0.00 | 0.12 | 0.12 | 80 | 1016.3 |
| 20260831194004 | 62 | 332 | 0.0 | 5.0 | 0.00 | 0.12 | 0.12 | 81 | 1016.1 |
| 20260831193003 | 63 | 0 | 0.0 | 0.0 | 0.00 | 0.12 | 0.12 | 80 | 1016.0 |
| 20260831192003 | 63 | 307 | 1.0 | 4.0 | 0.00 | 0.12 | 0.12 | 79 | 1015.9 |
| 20260831191003 | 64 | 306 | 1.0 | 4.0 | 0.00 | 0.12 | 0.12 | 79 | 1015.8 |
| 20260831190004 | 64 | 309 | 2.0 | 5.0 | 0.00 | 0.12 | 0.12 | 78 | 1015.7 |
| 20260831185004 | 65 | 312 | 3.0 | 8.0 | 0.00 | 0.12 | 0.12 | 77 | 1015.6 |
| 20260831184003 | 65 | 322 | 2.0 | 10.0 | 0.00 | 0.12 | 0.12 | 78 | 1015.4 |
| 20260831183004 | 66 | 332 | 3.0 | 9.0 | 0.00 | 0.12 | 0.12 | 78 | 1015.2 |
| 20260831182004 | 66 | 323 | 2.0 | 10.0 | 0.00 | 0.12 | 0.12 | 78 | 1015.1 |
| 20260831181003 | 66 | 308 | 2.0 | 9.0 | 0.00 | 0.12 | 0.12 | 78 | 1014.8 |
| 20260831175004 | 66 | 267 | 2.0 | 7.0 | 0.00 | 0.12 | 0.12 | 81 | 1014.5 |
| 20260831174003 | 66 | 277 | 2.0 | 9.0 | 0.00 | 0.12 | 0.12 | 81 | 1014.4 |
| 20260831172003 | 66 | 0 | 0.0 | 3.0 | 0.00 | 0.12 | 0.12 | 89 | 1014.1 |
| 20260831171003 | 65 | 0 | 0.0 | 0.0 | 0.00 | 0.12 | 0.12 | 90 | 1014.1 |
| 20260831170003 | 65 | 0 | 0.0 | 0.0 | 0.00 | 0.12 | 0.12 | 91 | 1014.0 |
| 20260831164003 | 64 | 338 | 1.0 | 2.0 | 0.00 | 0.12 | 0.12 | 90 | 1013.7 |
| 20260831163005 | 64 | 339 | 1.0 | 4.0 | 0.00 | 0.12 | 0.12 | 90 | 1013.7 |